Weather History for Elmira, NY

Change the Weather History Date:

Tuesday, October 8, 2013

  Actual Average Record
Temperature  
Mean Temperature 52 °F -  
Max Temperature 64 °F 61 °F 86 °F (1963)
Min Temperature 39 °F 37 °F 21 °F (1964)
Degree Days  
Heating Degree Days 12    
Growing Degree Days 2 (Base 50)    
Moisture  
Dew Point 41 °F    
Average Humidity 72    
Maximum Humidity 93    
Minimum Humidity 40    
Precipitation  
Precipitation 0.00 in - - ()
Sea Level Pressure  
Sea Level Pressure 30.26 in    
Wind  
Wind Speed 5 mph (NNW)    
Max Wind Speed 10 mph    
Max Gust Speed 17 mph    
Visibility 10 miles    
Events      
Averages and records for this station are not official NWS values.
T = Trace of Precipitation, MM = Missing Value Source: NWS Daily Summary

Daily Weather History Graph

Daily Weather History Graph

Search for Another Location

Airport:

Trip Planner

Search our weather history database for the weather conditions in past years. The results will help you decide how hot, cold, wet, or windy it might be!

Date:

Astronomy

Oct. 08, 2013 Rise Set
Actual Time 7:12 AM EDT 6:36 PM EDT
Civil Twilight 6:44 AM EDT 7:04 PM EDT
Nautical Twilight 6:12 AM EDT 7:37 PM EDT
Astronomical Twilight 5:39 AM EDT 8:09 PM EDT
Moon 11:08 AM EDT (10/8) 9:07 PM EDT (10/8)
Length of Visible Light 12h 20m
Length of Day
11h 24m
Waxing Crescent, 16% of the Moon is Illuminated
Oct 8
Waxing Crescent
Oct 11
First Quarter
Oct 18
Full
Oct 26
Last Quarter
Nov 3
New

Hourly Weather History & Observations

Time (EDT) Temp. Windchill Dew Point Humidity Pressure Visibility Wind Dir Wind Speed Gust Speed Precip Events Conditions
12:53 AM 50.0 °F - 43.0 °F 77% 30.06 in 10.0 mi WNW 8.1 mph - N/A   Clear
1:53 AM 48.9 °F - 42.1 °F 77% 30.10 in 10.0 mi WNW 6.9 mph - N/A   Clear
2:53 AM 46.9 °F - 41.0 °F 80% 30.10 in 10.0 mi WNW 4.6 mph - N/A   Clear
3:53 AM 44.1 °F - 41.0 °F 89% 30.13 in 10.0 mi Calm Calm - N/A   Clear
4:53 AM 41.0 °F - 39.0 °F 93% 30.16 in 10.0 mi Calm Calm - N/A   Clear
5:53 AM 42.1 °F 38.4 °F 39.0 °F 89% 30.18 in 10.0 mi West 5.8 mph - N/A   Clear
6:53 AM 42.1 °F 38.4 °F 39.9 °F 92% 30.22 in 10.0 mi West 5.8 mph - N/A   Clear
7:53 AM 43.0 °F 38.8 °F 39.9 °F 89% 30.25 in 10.0 mi SW 6.9 mph - N/A   Clear
8:24 AM 44.6 °F 43.1 °F 42.8 °F 93% 30.25 in 10.0 mi SSE 3.5 mph - N/A   Partly Cloudy
8:53 AM 46.0 °F - 44.1 °F 93% 30.28 in 10.0 mi Calm Calm - N/A   Partly Cloudy
9:53 AM 52.0 °F - 46.0 °F 80% 30.30 in 10.0 mi SW 5.8 mph - N/A   Clear
10:53 AM 55.9 °F - 43.0 °F 62% 30.30 in 10.0 mi Variable 3.5 mph - N/A   Scattered Clouds
11:53 AM 61.0 °F - 37.9 °F 42% 30.30 in 10.0 mi NNE 6.9 mph - N/A   Partly Cloudy
12:53 PM 63.0 °F - 39.9 °F 43% 30.30 in 10.0 mi NNE 10.4 mph 17.3 mph N/A   Partly Cloudy
1:53 PM 64.0 °F - 39.0 °F 40% 30.29 in 10.0 mi NNW 9.2 mph - N/A   Clear
2:53 PM 64.0 °F - 39.0 °F 40% 30.28 in 10.0 mi NW 6.9 mph - N/A   Clear
3:53 PM 63.0 °F - 39.0 °F 41% 30.29 in 10.0 mi East 3.5 mph - N/A   Clear
4:53 PM 63.0 °F - 41.0 °F 45% 30.29 in 10.0 mi NNE 6.9 mph - N/A   Clear
5:53 PM 60.1 °F - 39.0 °F 46% 30.30 in 10.0 mi NE 8.1 mph - N/A   Clear
6:53 PM 48.9 °F - 41.0 °F 74% 30.32 in 10.0 mi North 4.6 mph - N/A   Clear
7:53 PM 50.0 °F - 42.1 °F 74% 30.35 in 10.0 mi NE 6.9 mph - N/A   Clear
8:53 PM 46.0 °F 43.9 °F 41.0 °F 83% 30.36 in 10.0 mi ESE 4.6 mph - N/A   Clear
9:53 PM 44.1 °F 42.5 °F 39.0 °F 82% 30.37 in 10.0 mi SSW 3.5 mph - N/A   Clear
10:53 PM 42.1 °F - 39.0 °F 89% 30.38 in 10.0 mi Calm Calm - N/A   Clear
11:53 PM 39.9 °F - 37.9 °F 93% 30.38 in 10.0 mi Calm Calm - N/A   Clear